Jasper, AL

8:17 PM CST on December 13, 2019 (GMT -0600)
Walker County-Bevill

Weather History for KJFX - August, 2019

Change the Weather History Date:

Tuesday, August 27, 2019

  Actual Average Record
Temperature  
Mean Temperature 83 °F -  
Max Temperature 93 °F 89 °F 98 °F (2018)
Min Temperature 73 °F 65 °F 54 °F (1966)
Cooling Degree Days 18    
Growing Degree Days 33 (Base 50)    
Moisture  
Dew Point 77 °F    
Average Humidity 91    
Maximum Humidity 100    
Minimum Humidity 59    
Precipitation  
Precipitation 0.00 in - - ()
Sea Level Pressure  
Sea Level Pressure 29.93 in    
Wind  
Wind Speed - ()    
Max Wind Speed -    
Max Gust Speed -    
Visibility 7.3 miles    
Events Rain , Thunderstorm    
Averages and records for this station are not official NWS values.
T = Trace of Precipitation, MM = Missing Value Source: Averaged Metar Reports

Daily Weather History Graph

Daily Weather History Graph

Search for Another Location

Airport or City:

Astronomy

Aug. 27, 2019 Rise Set
Actual Time 6:19 AM CDT 7:21 PM CDT
Civil Twilight 5:53 AM CDT 7:47 PM CDT
Nautical Twilight 5:23 AM CDT 8:17 PM CDT
Astronomical Twilight 4:51 AM CDT 8:49 PM CDT
Moon 2:53 AM CDT (8/27) 5:32 PM CDT (8/27)
Length of Visible Light 13h 53m
Length of Day
13h 02m
Waning Crescent, 11% of the Moon is Illuminated
Aug 27
Waning Crescent
Aug 30
New
Sep 5
First Quarter
Sep 13
Full
Sep 21
Last Quarter

Hourly Weather History & Observations

Time (CDT) Temp. Heat Index Dew Point Humidity Pressure Visibility Wind Dir Wind Speed Gust Speed Precip Events Conditions
12:35 AM 75.2 °F - 75.2 °F 100% 29.88 in 10.0 mi North - - N/A   Overcast
12:55 AM 75.2 °F - 75.2 °F 100% 29.90 in 10.0 mi North - - N/A   Overcast
1:15 AM 75.2 °F - 75.2 °F 100% 29.90 in 10.0 mi North - - N/A   Overcast
1:35 AM 75.2 °F - 75.2 °F 100% 29.90 in 2.0 mi North - - N/A Rain Light Rain
1:55 AM 75.2 °F - 75.2 °F 100% 29.91 in 2.0 mi North - - N/A Rain Light Rain
2:15 AM 75.2 °F - 75.2 °F 100% 29.91 in 3.0 mi North - - N/A Rain Light Rain
2:35 AM 75.2 °F - 75.2 °F 100% 29.91 in 7.0 mi North - - N/A   Overcast
2:55 AM 75.2 °F - 75.2 °F 100% 29.92 in 3.0 mi North - - N/A Rain Light Rain
3:15 AM 75.2 °F - 75.2 °F 100% 29.93 in 7.0 mi North - - N/A   Overcast
3:35 AM 75.2 °F - 75.2 °F 100% 29.92 in 9.0 mi North - - N/A   Overcast
3:55 AM 75.2 °F - 75.2 °F 100% 29.93 in 9.0 mi North - - N/A   Overcast
4:15 AM 75.2 °F - 75.2 °F 100% 29.93 in 5.0 mi North - - N/A   Overcast
4:35 AM 75.2 °F - 75.2 °F 100% 29.92 in 3.0 mi North - - N/A Rain Light Rain
4:55 AM 75.2 °F - 75.2 °F 100% 29.93 in 2.5 mi North - - N/A Rain Light Rain
5:15 AM 75.2 °F - 75.2 °F 100% 29.93 in 2.0 mi North - - N/A Rain Light Rain
5:35 AM 75.2 °F - 75.2 °F 100% 29.94 in 9.0 mi North - - N/A   Overcast
5:55 AM 75.2 °F - 75.2 °F 100% 29.94 in 7.0 mi North - - N/A   Overcast
6:15 AM 75.2 °F - 75.2 °F 100% 29.95 in 7.0 mi North - - N/A   Overcast
6:35 AM 75.2 °F - 75.2 °F 100% 29.96 in 4.0 mi North - - N/A   Overcast
6:55 AM 75.2 °F - 75.2 °F 100% 29.96 in 4.0 mi North - - N/A   Overcast
7:35 AM 75.2 °F - 75.2 °F 100% 29.96 in 5.0 mi North - - N/A   Overcast
7:55 AM 77.0 °F - 77.0 °F 100% 29.95 in 6.0 mi North - - N/A   Overcast
8:15 AM 78.8 °F - 78.8 °F 100% 29.94 in 8.0 mi North - - N/A   Scattered Clouds
8:35 AM 78.8 °F - 78.8 °F 100% 29.93 in 9.0 mi North - - N/A   Scattered Clouds
8:55 AM 80.6 °F 88.1 °F 78.8 °F 94% 29.94 in 10.0 mi North - - N/A   Scattered Clouds
9:15 AM 80.6 °F 88.1 °F 78.8 °F 94% 29.94 in 10.0 mi North - - N/A   Overcast
9:35 AM 82.4 °F 90.9 °F 77.0 °F 84% 29.94 in 10.0 mi North - - N/A   Overcast
9:55 AM 82.4 °F 90.9 °F 77.0 °F 84% 29.95 in 10.0 mi North - - N/A   Overcast
10:15 AM 82.4 °F 90.9 °F 77.0 °F 84% 29.95 in 10.0 mi North - - N/A   Overcast
10:35 AM 84.2 °F 94.1 °F 77.0 °F 79% 29.94 in 10.0 mi North - - N/A   Mostly Cloudy
10:55 AM 84.2 °F 94.1 °F 77.0 °F 79% 29.96 in 10.0 mi North - - N/A   Mostly Cloudy
11:15 AM 86.0 °F 96.9 °F 77.0 °F 74% 29.95 in 10.0 mi North - - N/A   Mostly Cloudy
11:35 AM 87.8 °F 99.7 °F 77.0 °F 70% 29.94 in 10.0 mi North - - N/A   Scattered Clouds
11:55 AM 89.6 °F 102.2 °F 77.0 °F 66% 29.93 in 10.0 mi North - - N/A   Partly Cloudy
12:15 PM 89.6 °F 102.2 °F 77.0 °F 66% 29.92 in 10.0 mi North - - N/A   Mostly Cloudy
12:35 PM 89.6 °F 102.2 °F 77.0 °F 66% 29.92 in 10.0 mi North - - N/A   Scattered Clouds
12:55 PM 93.2 °F 107.2 °F 77.0 °F 59% 29.91 in 10.0 mi North - - N/A   Scattered Clouds
1:15 PM 91.4 °F 105.1 °F 77.0 °F 63% 29.92 in 10.0 mi North - - N/A   Scattered Clouds
1:35 PM 91.4 °F 105.1 °F 77.0 °F 63% 29.91 in 10.0 mi North - - N/A   Scattered Clouds
1:55 PM 93.2 °F 107.2 °F 77.0 °F 59% 29.91 in 10.0 mi North - - N/A   Scattered Clouds
2:15 PM 91.4 °F 105.1 °F 77.0 °F 63% 29.91 in 10.0 mi North - - N/A   Mostly Cloudy
2:35 PM 91.4 °F 105.1 °F 77.0 °F 63% 29.90 in 10.0 mi North - - N/A   Mostly Cloudy
2:55 PM 91.4 °F 105.1 °F 77.0 °F 63% 29.89 in 10.0 mi North - - N/A Thunderstorm Overcast
3:15 PM 87.8 °F 99.7 °F 77.0 °F 70% 29.89 in 10.0 mi North - - N/A Thunderstorm Mostly Cloudy
3:35 PM 80.6 °F 89.3 °F 80.6 °F 100% 29.91 in 0.5 mi North - - N/A Rain , Thunderstorm Heavy Thunderstorms and Rain
3:55 PM 77.0 °F - 77.0 °F 100% 29.91 in 1.0 mi North - - N/A Rain , Thunderstorm Heavy Thunderstorms and Rain
4:15 PM 80.6 °F 89.3 °F 80.6 °F 100% 29.90 in 10.0 mi North - - N/A Thunderstorm Mostly Cloudy
4:35 PM 86.0 °F 96.9 °F 77.0 °F 74% 29.90 in 10.0 mi North - - N/A Thunderstorm Clear
4:55 PM 84.2 °F 96.1 °F 78.8 °F 84% 29.91 in 10.0 mi North - - N/A Thunderstorm Clear
5:35 PM 80.6 °F 88.1 °F 78.8 °F 94% 29.91 in 10.0 mi North - - N/A Thunderstorm Partly Cloudy
5:55 PM 80.6 °F 89.3 °F 80.6 °F 100% 29.91 in 10.0 mi North - - N/A   Scattered Clouds
6:15 PM 78.8 °F - 78.8 °F 100% 29.91 in 9.0 mi North - - N/A Thunderstorm Partly Cloudy
6:35 PM 78.8 °F - 78.8 °F 100% 29.92 in 9.0 mi North - - N/A Thunderstorm Clear
6:55 PM 78.8 °F - 78.8 °F 100% 29.93 in 7.0 mi North - - N/A   Clear
7:15 PM 78.8 °F - 78.8 °F 100% 29.94 in 8.0 mi North - - N/A   Clear
7:35 PM - - - N/A% 29.95 in 7.0 mi North - - N/A   Clear
7:55 PM 77.0 °F - 77.0 °F 100% 29.96 in 6.0 mi North - - N/A   Clear
8:15 PM 77.0 °F - 77.0 °F 100% 29.96 in 9.0 mi North - - N/A   Clear
8:35 PM 77.0 °F - 77.0 °F 100% 29.97 in 9.0 mi North - - N/A   Partly Cloudy
8:55 PM 77.0 °F - 77.0 °F 100% 29.97 in 9.0 mi North - - N/A   Clear
9:15 PM 75.2 °F - 75.2 °F 100% 29.97 in 7.0 mi North - - N/A   Clear
9:35 PM 75.2 °F - 75.2 °F 100% 29.98 in 6.0 mi North - - N/A   Clear
9:55 PM 75.2 °F - 75.2 °F 100% 29.98 in 4.0 mi North - - N/A   Clear
10:15 PM 75.2 °F - 75.2 °F 100% 29.98 in 5.0 mi North - - N/A   Clear
10:35 PM 75.2 °F - 75.2 °F 100% 29.98 in 4.0 mi North - - N/A   Clear
10:55 PM 75.2 °F - 75.2 °F 100% 29.98 in 1.5 mi North - - N/A   Clear
11:15 PM 73.4 °F - 73.4 °F 100% 29.98 in 0.8 mi North - - N/A   Mist
11:35 PM 73.4 °F - 73.4 °F 100% 29.98 in 2.0 mi North - - N/A   Scattered Clouds
11:55 PM 73.4 °F - 73.4 °F 100% 29.97 in 3.0 mi North - - N/A   Overcast